Regional Weather Roundup
Issued by NWS Charleston, SC

Current Version | Previous Version | Text Only | Print | Product List | Glossary Off
Versions: 1 2 3 4 5 6 7 8 9 10 11 12 13 14 15 16 17 18 19 20 21 22 23 24 25 26 27 28 29 30 31 32 33 34 35 36 37 38 39 40 41 42 43 44 45 46 47 48 49 50

000
ASUS42 KCHS 300127
RWRCHS

REGIONAL WEATHER ROUNDUP
NATIONAL WEATHER SERVICE CHARLESTON SC
900 PM EDT FRI MAY 29 2015

NOTE: "FAIR" INDICATES FEW OR NO CLOUDS BELOW 12,000 FEET WITH NO
SIGNIFICANT WEATHER AND/OR OBSTRUCTIONS TO VISIBILITY.

NOT ALL STATIONS ARE QUALITY CONTROLLED BY THE NATIONAL
WEATHER SERVICE. USE DATA WITH CAUTION...ESPECIALLY
DEWPOINT OBSERVATIONS.

SCZ027-030-031-034>040-042>050-300200-
...SOUTHEAST SOUTH CAROLINA...

CITY           SKY/WX    TMP DP  RH WIND       PRES   REMARKS
N CHARLESTON   PTCLDY    75  68  78 E8        30.16S
WATERFRONT PAR   N/A     76  71  84 E9        30.13R
MOUNT PLEASANT LGT RAIN  72  70  94 CALM      30.17S
JOHNS ISLAND   PTCLDY    75  72  88 E8        30.17S
PINOPOLIS        N/A     77  70  78 CALM      30.08S
MONCKS CORNER  FAIR      73  68  83 CALM      30.17R
SUMMERVILLE    FAIR      73  68  83 CALM      30.18R
BEAUFORT MCAS  CLEAR     76  68  76 E8        30.16R
BEAUFORT ARPT  FAIR      73  70  88 CALM      30.16S
HILTON HEAD IS CLEAR     75  70  83 NE6       30.17S
WALTERBORO     PTCLDY    72  64  78 E5        30.18R
ALLENDALE      CLOUDY    77  68  73 SE3       30.15S

...SOUTHERN MIDLANDS AND PEE DEE...

CITY           SKY/WX    TMP DP  RH WIND       PRES   REMARKS
GEORGETOWN     NOT AVBL
KINGSTREE      NOT AVBL
ORANGEBURG     MOCLDY    76  64  66 SE5       30.16S
BARNWELL       FAIR      79  66  65 E6        30.17R
AIKEN          FAIR      77  61  57 SE8       30.19R
MANNING        FAIR      72  55  56 CALM      30.18R
COLUMBIA       PTCLDY    79  62  56 SE6       30.15R
SUMTER         CLEAR     77  66  68 S6        30.15R
FLORENCE       CLEAR     79  65  62 SE12      30.17R
MYRTLE BEACH   PTCLDY    75  68  78 SE8       30.20
N MYRTLE BEACH MOCLDY    76  69  79 E7        30.19R

$$

GAZ063-065-086>088-099>101-113>116-118-119-134>141-150-300200-
...SOUTHEAST GEORGIA...

CITY           SKY/WX    TMP DP  RH WIND       PRES   REMARKS
SAVANNAH ARPT  PTCLDY    75  66  73 E8        30.16R
HUNTER AAF     CLEAR     75  70  84 E7        30.14R
FORT STEWART   CLOUDY    76  69  77 E6        30.13R
STATESBORO     CLEAR     76  69  77 SE5       30.15R
SYLVANIA       CLEAR     77  69  75 SE6       30.17R
CLAXTON        CLOUDY    77  68  73 SE5       30.15R

...CSRA...CENTRAL AND FAR SOUTHEAST GEORGIA...

CITY           SKY/WX    TMP DP  RH WIND       PRES   REMARKS
THOMSON        PTCLDY    73  69  87 CALM      30.19S
AUGUSTA-BUSH   MOCLDY    75  65  70 SE10G16   30.13R
AUGUSTA-DANIEL PTCLDY    83  58  42 SE3       30.15R
SWAINSBORO     FAIR      81  66  61 SE6       30.15R
VIDALIA        CLEAR     77  64  65 SE6       30.14R
EASTMAN        MOCLDY    80  66  62 SE5       30.15R
HAZLEHURST     FAIR      79  67  65 SE5       30.12R
ALMA           CLEAR     77  64  64 E9        30.12S
WAYCROSS       CLEAR     76  69  78 SE8       30.12S
JESUP          CLOUDY    79  70  73 E7        30.14S
BAXLEY         MOCLDY    77  66  69 E3        30.13R
BRUNSWICK      CLOUDY    75  68  78 NE9       30.15S
SAINT SIMONS   NOT AVBL

$$

SCZ027-028-034-036>038-045-046-048>050-GAZ119-141-300200-
...LAKE AND SUPPLEMENTAL COASTAL OBSERVATIONS...

STATION/POSITION TIME  TEMP    WIND        PRES    WAVE   SWELL
                       AIR SEA DIR/SP/G            HT/PER HT/PER/DIR
                 (UTC) (F)     (DEG/KT/KT) (MB)    (FT/S) (FT/S/D)
UPR LAKE MARION  NOT AVBL
WINYAH BAY       0000   76     100/  8     1021.0S
LAKE MURRAY      0000   83     140/  6/ 10 1019.6S
ACE BASIN NERRS  NOT AVBL
FORT PULASKI     0100   76 80   60/ 11/ 12 1021.7R
SAPELO ISLAND    0000   75      50/  5     1021.0S

$$

ANZ835-935-AMZ111-154-330-350-352-354-370-450-454-472-300200-
...C-MAN AND BUOY OBSERVATIONS...

STATION/POSITION TIME  TEMP    WIND        PRES    WAVE   SWELL
                       AIR SEA DIR/SP/G            HT/PER HT/PER/DIR
                 (UTC) (F)     (DEG/KT/KT) (MB)    (FT/S) (FT/S/D)
BUOY 41004       0050   78 79   90/ 12/ 14 1020.8R   4/ 8   3/ 8
BUOY 41008       0050   75 78  270/  2/  6 1020.9R   3/10   3/ 80/10
FOLLY BEACH CMAN 0100   76      80/ 12/ 13 1021.5S
CAPERS NEARSHORE 0008   76      80/ 14/ 17 1021.4S
FRIPP NEARSHORE  0000   77      80/ 14/ 16 1020.7R


STATION/POSITION TIME  TEMP    WIND        PRES    WAVE   SWELL
                       AIR SEA DIR/SP/G            HT/PER HT/PER/DIR
                 (UTC) (F)     (DEG/KT/KT) (MB)    (FT/S) (FT/S/D)
5E ST. MARYS GA  0021      80                N/A     3/11   2/ 90/11
FRYING PAN BUOY  0050   75 75   60/  8/ 10 1022.7R   4/ 8   3/100/ 8
BUOY 41025       0050   76 80  120/ 10/ 14 1023.2S   3/ 8   3/ 90/ 8
CAPE LOOKOUT NC  0100   75     110/ 11/ 12 1022.6S
BUOY 41002       0050   75 75   90/ 14/ 17 1021.9R   6/ 9   5/100/ 9
BUOY 41010       0020   78 81   60/ 12/ 16 1018.9R
ST AUGUSTINE FL  0100   76 80   60/ 12/ 13 1020.4F


$$


USA.gov is the U.S. government's official web portal to all federal, state and local government web resources and services.